Regional Weather Roundup
Issued by NWS Goodland, KS

Home | Current Version | Previous Version | Graphics & Text | Print | Product List | Glossary On
Versions: 1 2 3 4 5 6 7 8 9 10 11 12 13 14 15 16 17 18 19 20 21 22 23 24 25 26 27 28 29 30 31 32 33 34 35 36 37 38 39 40 41 42 43 44 45 46 47 48 49 50
000
ASUS43 KGLD 241708
RWRGLD

GOODLAND FORECAST AREA HOURLY WEATHER ROUNDUP
NATIONAL WEATHER SERVICE GOODLAND KS
1100 AM MDT THU JUL 24 2014

...OFFICIAL OBSERVATIONS...

CITY           SKY/WX    TMP DP  RH WIND       PRES   REMARKS
GOODLAND KS    SUNNY     94  55  26 SW17      30.05F
HILL CITY KS   SUNNY     89  68  49 S16G25    30.02S
IMPERIAL NEB   SUNNY     95  59  30 S13G22    29.97F
MCCOOK NEB     SUNNY     88  68  51 S12       29.99F
AKRON CO       SUNNY     95  48  20 SW16G25   30.06S
BURLINGTON CO  SUNNY     93  52  24 SW17G25   30.08F
LIMON CO       SUNNY     91  45  20 S20G26    30.14F
$$

...UNOFFICIAL OBSERVATIONS...

CITY           SKY/WX    TMP DP  RH WIND       PRES   REMARKS
COLBY KS       SUNNY     91  66  43 S12G20    30.04S
GOVE KS          N/A     90  32  12 MISG        N/A
LENORA KS        N/A     86  32  14 MISG        N/A
NORTON KS      SUNNY     88  64  45 S14G22    30.00F
OBERLIN KS     FAIR      91  63  38 S10G16    30.00
TRIBUNE KS     SUNNY     95  37  13 S15G22    30.08
WAKEENEY KS      N/A     89  63  41 MISG        N/A
KIT CARSON CO    N/A     94  53  24 N15G22      N/A
WRAY CO          N/A    100  43  14 S18G33    29.99
YUMA CO          N/A     93  53  25 S13G24      N/A
$$



USA.gov is the U.S. government's official web portal to all federal, state and local government web resources and services.